View Data : List Evapotranspiration (ETo ) Reports


 
Search Evapotranspiration Reports
Station Fields:
Location:
Date Range:
Start Date:   End Date:
Searched: Report date on 6/25/2017.
Showing 1 - 50 of 105 Records. <Back  Page   Next>
DateTimeStation NumberStation NameGaugeReadingRefill LevelEvap AmtView
6/25/2017  12:00 AM  MN-AA-5  East Bethel 3.1 NE 5.44  0.04   
6/25/2017  5:21 AM  MO-CP-7  Boonville 0.5 ESE 7.32  0.15   
6/25/2017  5:30 AM  AL-MD-25  Huntsville 4.4 ENE 5.90  0.07   
6/25/2017  5:30 AM  IN-TN-1  Atlanta 4.4 W 8.80  0.10   
6/25/2017  5:30 AM  NH-CH-21  Keene 2.0 SE 4.19  0.14   
6/25/2017  5:30 AM  TX-ER-4  Stephenville 2.6 NNW 1.02  0.02   
6/25/2017  5:47 AM  NJ-MS-21  Randolph Twp 0.8 W 4.49  0.28   
6/25/2017  6:00 AM  CA-SJ-5  Lodi 1.0 NNW 6.70  0.50   
6/25/2017  6:00 AM  CO-EP-24  Black Forest 2.1 SSE 4.92  0.12   
6/25/2017  6:00 AM  IN-PT-12  Valparaiso 4.3 SW 5.54  0.10   
6/25/2017  6:00 AM  MD-MG-54  Germantown 4.6 NNE 1.02  0.13   
6/25/2017  6:00 AM  PA-MT-16  North Wales 1.3 WSW 6.09  0.12   
6/25/2017  6:00 AM  VA-FR-26  Ferrum 2.7 SW 6.54  0.18   
6/25/2017  6:00 AM  WA-SJ-28  Lopez Island 3.9 NNE 5.31  0.13   
6/25/2017  6:20 AM  TN-PT-3  Byrdstown 2.8 SSW 1.43  0.13   
6/25/2017  6:24 AM  WI-MC-4  Two Rivers 1.4 N 3.90  0.08   
6/25/2017  6:30 AM  IL-WN-2  Roscoe 1.6 ESE 5.28  0.13   
6/25/2017  6:30 AM  IN-AL-5  Huntertown 2.6 ESE 6.85  0.09   
6/25/2017  6:30 AM  IA-LN-7  Central City 6.7 W 8.59  0.15   
6/25/2017  6:30 AM  OH-DR-1  Bradford 2.3 NW 9.04  0.14   
6/25/2017  6:30 AM  PA-CN-13  Boalsburg 0.4 E 9.75  0.25   
6/25/2017  6:35 AM  VA-HV-8  Montpelier 4.8 E 7.00  0.13   
6/25/2017  7:00 AM  AZ-PN-50  Saddlebrooke 1.5 SW 8.22  0.32   
6/25/2017  7:00 AM  CA-HM-5  Mckinleyville 7.3 ESE 1.95  0.11   
6/25/2017  7:00 AM  CA-SD-12  Poway 3.2NE 4.28  0.17   
6/25/2017  7:00 AM  CA-SD-132  Descanso 3.7N 5.20  0.30   
6/25/2017  7:00 AM  CA-SN-100  Glen Ellen 1.9 NNW 2.95  0.15   
6/25/2017  7:00 AM  CA-TH-11  Red Bluff 5.1 NNW 3.48  0.68   
6/25/2017  7:00 AM  CO-EP-188  Colorado Springs 3.7 ENE 4.98  0.12   
6/25/2017  7:00 AM  CO-GN-18  Crested Butte 6.2 N 3.07  0.15   
6/25/2017  7:00 AM  CO-LR-36  Timnath 4.1 NNE 10.04  0.20   
6/25/2017  7:00 AM  CO-LR-623  Fort Collins 6.1 SW 8.81  0.13   
6/25/2017  7:00 AM  CO-LG-6  Sterling 3.7 NNE 6.40  0.10   
6/25/2017  7:00 AM  CO-ME-79  Grand Junction 3.9 WSW 3.80  0.30   
6/25/2017  7:00 AM  IL-CP-1  Homer 2.0 N 8.22  0.13   
6/25/2017  7:00 AM  IL-WF-14  El Paso 5.2 NNW 6.10  0.07   
6/25/2017  7:00 AM  IN-BN-53  Zionsville 4.3 NNW 2.36  0.04   
6/25/2017  7:00 AM  IN-HR-5  Milltown 5.7 SSE 0.28  0.16   
6/25/2017  7:00 AM  IN-MR-13  Speedway 6.2 SSW 9.15  0.12   
6/25/2017  7:00 AM  IN-OW-9  Spencer 7.0 S 0.08  0.05   
6/25/2017  7:00 AM  IN-PT-133  Valparaiso 2.2 WNW 8.45  0.15   
6/25/2017  7:00 AM  IA-TY-2  New Market 4.7 N 9.64  0.18   
6/25/2017  7:00 AM  KS-CQ-2  Sedan 0.4 NE 0.42  0.19   
6/25/2017  7:00 AM  KS-MP-42  McPherson 2.9 E 10.40  0.27   
6/25/2017  7:00 AM  KS-SG-111  Wichita 5.9 WSW 2.00  0.21   
6/25/2017  7:00 AM  KY-FR-1  Frankfort 3.3 NE 4.00  0.15   
6/25/2017  7:00 AM  KY-ME-8  Harrodsburg 10.8 NW 0.86  0.15   
6/25/2017  7:00 AM  ME-CM-3  New Gloucester 3.0 SE 2.03  0.04   
6/25/2017  7:00 AM  ME-LN-1  Newcastle 2.1 SW 4.46  0.12   
6/25/2017  7:00 AM  ME-YK-2  Kittery Point 0.8 WSW 4.04  0.16